VOZ1846 YPPD-YPPH

Flight info

Callsign VOZ1846
Flight time N/A
Altitude 38000
Route PD Q9 AVPAL Q38 PH
Aircraft B738/M-SDE2E3FGHIRWXY/LB1

Departure

Time N/A
Airport Port Hedland International Airport (YPPD)

Arrival

Time 2026-04-28 20:17
Airport Perth International Airport (YPPH)
Time Latitude Longitude Altitude Speed Heading
2026-04-28 18:50 -23.57074 118.05473 38011 ft 456 kts 199°
2026-04-28 18:50 -23.59909 118.04930 37998 ft 456 kts 199°
2026-04-28 18:51 -23.66141 118.03736 37991 ft 454 kts 199°
2026-04-28 18:51 -23.72345 118.02545 37986 ft 451 kts 199°
2026-04-28 18:52 -23.78516 118.01359 37982 ft 449 kts 199°
2026-04-28 18:52 -23.84658 118.00176 37983 ft 447 kts 199°
2026-04-28 18:53 -23.90776 117.98997 37993 ft 446 kts 199°
2026-04-28 18:53 -23.96879 117.97819 37979 ft 445 kts 199°
2026-04-28 18:54 -24.02591 117.96715 37985 ft 445 kts 199°
2026-04-28 18:54 -24.08542 117.95564 37989 ft 446 kts 199°
2026-04-28 18:55 -24.13627 117.94580 37993 ft 447 kts 199°
2026-04-28 18:55 -24.20804 117.93190 37988 ft 449 kts 199°
2026-04-28 18:56 -24.26970 117.91994 37989 ft 451 kts 199°
2026-04-28 18:56 -24.33161 117.90793 37985 ft 453 kts 199°
2026-04-28 18:57 -24.39334 117.89595 37988 ft 454 kts 199°
2026-04-28 18:57 -24.45571 117.88383 37993 ft 456 kts 199°
2026-04-28 18:58 -24.51826 117.87167 37978 ft 457 kts 199°
2026-04-28 18:58 -24.58085 117.85949 37981 ft 457 kts 199°
2026-04-28 18:59 -24.64348 117.84729 37981 ft 457 kts 199°
2026-04-28 18:59 -24.70609 117.83508 37980 ft 457 kts 199°
2026-04-28 19:00 -24.76860 117.82287 37979 ft 456 kts 199°
2026-04-28 19:00 -24.83049 117.81077 37983 ft 456 kts 199°
2026-04-28 19:01 -24.89295 117.79854 37972 ft 456 kts 199°
2026-04-28 19:01 -24.95534 117.78632 37978 ft 456 kts 199°
2026-04-28 19:02 -25.01778 117.77407 37970 ft 456 kts 199°
2026-04-28 19:02 -25.06931 117.76396 37990 ft 446 kts 198°
2026-04-28 19:03 -25.10343 117.75734 37981 ft 435 kts 198°
2026-04-28 19:03 -25.12311 117.75351 37979 ft 433 kts 198°
2026-04-28 19:03 -25.19224 117.73988 37989 ft 431 kts 198°
2026-04-28 19:04 -25.25133 117.72818 37990 ft 432 kts 198°
2026-04-28 19:04 -25.31019 117.71657 38012 ft 424 kts 197°
2026-04-28 19:05 -25.36702 117.70543 37987 ft 414 kts 197°
2026-04-28 19:05 -25.42359 117.69424 37982 ft 412 kts 197°
2026-04-28 19:06 -25.47041 117.68496 37986 ft 411 kts 197°
2026-04-28 19:06 -25.53622 117.67190 37984 ft 411 kts 197°
2026-04-28 19:07 -25.59261 117.66072 37988 ft 412 kts 197°
2026-04-28 19:07 -25.64921 117.64949 37989 ft 414 kts 197°
2026-04-28 19:08 -25.70607 117.63820 37991 ft 416 kts 197°
2026-04-28 19:08 -25.76318 117.62686 37990 ft 418 kts 197°
2026-04-28 19:09 -25.82048 117.61546 37990 ft 419 kts 197°
2026-04-28 19:09 -25.87799 117.60402 37988 ft 420 kts 197°
2026-04-28 19:10 -25.93557 117.59256 37991 ft 421 kts 197°
2026-04-28 19:10 -25.99318 117.58108 37989 ft 420 kts 197°
2026-04-28 19:11 -26.05051 117.56964 37988 ft 420 kts 198°
2026-04-28 19:11 -26.10753 117.55826 37987 ft 419 kts 198°
2026-04-28 19:12 -26.16474 117.54682 37991 ft 417 kts 198°
2026-04-28 19:12 -26.22183 117.53539 37987 ft 416 kts 198°
2026-04-28 19:13 -26.26951 117.52584 37991 ft 415 kts 198°
2026-04-28 19:13 -26.33548 117.51261 37987 ft 414 kts 198°
2026-04-28 19:14 -26.39214 117.50122 37990 ft 413 kts 198°
2026-04-28 19:14 -26.44867 117.48986 37991 ft 413 kts 198°
2026-04-28 19:15 -26.49564 117.48040 37993 ft 413 kts 198°
2026-04-28 19:15 -26.55219 117.46901 37992 ft 413 kts 198°
2026-04-28 19:16 -26.61831 117.45568 37988 ft 413 kts 198°
2026-04-28 19:16 -26.66536 117.44618 37988 ft 414 kts 198°
2026-04-28 19:17 -26.73159 117.43280 37991 ft 414 kts 198°
2026-04-28 19:17 -26.78835 117.42133 37994 ft 414 kts 198°
2026-04-28 19:18 -26.83552 117.41178 37991 ft 415 kts 198°
2026-04-28 19:18 -26.89232 117.40028 37992 ft 415 kts 198°
2026-04-28 19:19 -26.94919 117.38874 37990 ft 415 kts 198°
2026-04-28 19:19 -27.01529 117.37532 37994 ft 416 kts 198°
2026-04-28 19:20 -27.06300 117.36562 37994 ft 416 kts 198°
2026-04-28 19:20 -27.12925 117.35215 37988 ft 416 kts 198°
2026-04-28 19:21 -27.17661 117.34250 37987 ft 416 kts 198°
2026-04-28 19:21 -27.24315 117.32894 37989 ft 416 kts 198°
2026-04-28 19:22 -27.28126 117.32117 37986 ft 416 kts 198°
2026-04-28 19:22 -27.34738 117.30766 37988 ft 415 kts 198°
2026-04-28 19:23 -27.40418 117.29605 37988 ft 415 kts 198°
2026-04-28 19:23 -27.46100 117.28442 37989 ft 415 kts 198°
2026-04-28 19:24 -27.51778 117.27278 37986 ft 415 kts 198°
2026-04-28 19:24 -27.57453 117.26114 37990 ft 414 kts 198°
2026-04-28 19:25 -27.63121 117.24950 37992 ft 414 kts 198°
2026-04-28 19:25 -27.68787 117.23785 37987 ft 414 kts 198°
2026-04-28 19:26 -27.74452 117.22620 37994 ft 414 kts 198°
2026-04-28 19:26 -27.80116 117.21453 37989 ft 414 kts 198°
2026-04-28 19:27 -27.85773 117.20287 37990 ft 413 kts 198°
2026-04-28 19:27 -27.91432 117.19118 37992 ft 413 kts 198°
2026-04-28 19:28 -27.97082 117.17951 37992 ft 413 kts 198°
2026-04-28 19:28 -28.02500 117.16830 37992 ft 413 kts 198°
2026-04-28 19:29 -28.07177 117.15861 37994 ft 413 kts 198°
2026-04-28 19:29 -28.13787 117.14491 37994 ft 413 kts 198°
2026-04-28 19:30 -28.19448 117.13316 37992 ft 414 kts 198°
2026-04-28 19:30 -28.25071 117.12148 37991 ft 414 kts 198°
2026-04-28 19:31 -28.30733 117.10970 37994 ft 414 kts 198°
2026-04-28 19:31 -28.36396 117.09792 37991 ft 414 kts 198°
2026-04-28 19:32 -28.42055 117.08612 37996 ft 413 kts 198°
2026-04-28 19:32 -28.47713 117.07432 37989 ft 413 kts 198°
2026-04-28 19:33 -28.53368 117.06251 37995 ft 413 kts 198°
2026-04-28 19:33 -28.59024 117.05068 37997 ft 413 kts 198°
2026-04-28 19:34 -28.64677 117.03884 37996 ft 413 kts 198°
2026-04-28 19:34 -28.70331 117.02699 37995 ft 413 kts 198°
2026-04-28 19:35 -28.75990 117.01512 37999 ft 413 kts 198°
2026-04-28 19:35 -28.81647 117.00324 37996 ft 413 kts 198°
2026-04-28 19:36 -28.87299 116.99136 38001 ft 413 kts 198°
2026-04-28 19:36 -28.92952 116.97946 37995 ft 413 kts 198°
2026-04-28 19:37 -28.97652 116.96955 38008 ft 413 kts 198°
2026-04-28 19:37 -29.04259 116.95562 37998 ft 413 kts 198°
2026-04-28 19:38 -29.09910 116.94368 37997 ft 413 kts 198°
2026-04-28 19:38 -29.15570 116.93171 37996 ft 414 kts 198°
2026-04-28 19:39 -29.21191 116.91981 37997 ft 414 kts 198°
2026-04-28 19:39 -29.26853 116.90781 37998 ft 414 kts 198°
2026-04-28 19:40 -29.32512 116.89581 38001 ft 414 kts 198°
2026-04-28 19:40 -29.38175 116.88378 38003 ft 414 kts 198°
2026-04-28 19:41 -29.43837 116.87174 38004 ft 414 kts 198°
2026-04-28 19:41 -29.49505 116.85967 38006 ft 415 kts 198°
2026-04-28 19:42 -29.55180 116.84758 38009 ft 415 kts 198°
2026-04-28 19:42 -29.59894 116.83752 38008 ft 415 kts 198°
2026-04-28 19:43 -29.66529 116.82335 38004 ft 415 kts 198°
2026-04-28 19:43 -29.72206 116.81122 38019 ft 415 kts 198°
2026-04-28 19:44 -29.77887 116.79905 38013 ft 415 kts 198°
2026-04-28 19:44 -29.83605 116.78676 37391 ft 421 kts 198°
2026-04-28 19:45 -29.86477 116.78061 36820 ft 419 kts 198°
2026-04-28 19:45 -29.89336 116.77449 36249 ft 417 kts 198°
2026-04-28 19:45 -29.92187 116.76838 35629 ft 417 kts 198°
2026-04-28 19:45 -29.95033 116.76228 35147 ft 413 kts 198°
2026-04-28 19:46 -29.97845 116.75626 34692 ft 409 kts 198°
2026-04-28 19:46 -30.00628 116.75029 34259 ft 405 kts 198°
2026-04-28 19:46 -30.03399 116.74434 33781 ft 402 kts 198°
2026-04-28 19:46 -30.06132 116.73845 33291 ft 398 kts 198°
2026-04-28 19:47 -30.08835 116.73263 32842 ft 393 kts 198°
2026-04-28 19:47 -30.11471 116.72695 32408 ft 389 kts 198°
2026-04-28 19:47 -30.14149 116.72117 31970 ft 384 kts 198°
2026-04-28 19:47 -30.16729 116.71560 31556 ft 380 kts 198°
2026-04-28 19:48 -30.19317 116.71000 31140 ft 376 kts 198°
2026-04-28 19:48 -30.21879 116.70446 30731 ft 373 kts 198°
2026-04-28 19:48 -30.24417 116.69897 30326 ft 370 kts 198°
2026-04-28 19:48 -30.26934 116.69352 29889 ft 367 kts 198°
2026-04-28 19:49 -30.29429 116.68811 29425 ft 363 kts 197°
2026-04-28 19:49 -30.31898 116.68276 28996 ft 359 kts 197°
2026-04-28 19:49 -30.34342 116.67747 28583 ft 355 kts 197°
2026-04-28 19:49 -30.36761 116.67222 28145 ft 352 kts 197°
2026-04-28 19:50 -30.41527 116.66186 27321 ft 347 kts 196°
2026-04-28 19:50 -30.43902 116.65669 26908 ft 345 kts 196°
2026-04-28 19:50 -30.46261 116.65156 26502 ft 345 kts 196°
2026-04-28 19:51 -30.48616 116.64643 26108 ft 344 kts 196°
2026-04-28 19:51 -30.50976 116.64129 25709 ft 347 kts 195°
2026-04-28 19:51 -30.53387 116.63602 25292 ft 360 kts 195°
2026-04-28 19:51 -30.55868 116.63003 24844 ft 366 kts 199°
2026-04-28 19:52 -30.58297 116.62143 24397 ft 365 kts 202°
2026-04-28 19:52 -30.60698 116.61194 23946 ft 364 kts 202°
2026-04-28 19:52 -30.63095 116.60227 23435 ft 365 kts 202°
2026-04-28 19:52 -30.65496 116.59265 22926 ft 365 kts 202°
2026-04-28 19:53 -30.67888 116.58319 22509 ft 362 kts 202°
2026-04-28 19:53 -30.70262 116.57389 22093 ft 359 kts 202°
2026-04-28 19:53 -30.72622 116.56468 21653 ft 357 kts 202°
2026-04-28 19:53 -30.74976 116.55552 21225 ft 356 kts 202°
2026-04-28 19:54 -30.77315 116.54641 20806 ft 354 kts 202°
2026-04-28 19:54 -30.79642 116.53734 20403 ft 352 kts 202°
2026-04-28 19:54 -30.81959 116.52831 19995 ft 350 kts 202°
2026-04-28 19:54 -30.84264 116.51932 19596 ft 349 kts 202°
2026-04-28 19:55 -30.86560 116.51036 19207 ft 347 kts 202°
2026-04-28 19:55 -30.88817 116.50154 18829 ft 346 kts 202°
2026-04-28 19:55 -30.91092 116.49265 18452 ft 344 kts 202°
2026-04-28 19:55 -30.93360 116.48379 18040 ft 343 kts 202°
2026-04-28 19:56 -30.95582 116.47509 17637 ft 341 kts 202°
2026-04-28 19:56 -30.97825 116.46631 17233 ft 339 kts 202°
2026-04-28 19:56 -31.00056 116.45757 16835 ft 338 kts 202°
2026-04-28 19:56 -31.02277 116.44888 16438 ft 336 kts 202°
2026-04-28 19:57 -31.04488 116.44021 16054 ft 334 kts 202°
2026-04-28 19:57 -31.06690 116.43158 15664 ft 333 kts 202°
2026-04-28 19:57 -31.08878 116.42300 15284 ft 332 kts 202°
2026-04-28 19:57 -31.11067 116.41441 14908 ft 331 kts 202°
2026-04-28 19:58 -31.13245 116.40586 14544 ft 329 kts 202°
2026-04-28 19:58 -31.15414 116.39734 14181 ft 328 kts 202°
2026-04-28 19:58 -31.17573 116.38886 13819 ft 327 kts 202°
2026-04-28 19:58 -31.19724 116.38040 13429 ft 325 kts 202°
2026-04-28 19:59 -31.21862 116.37198 13064 ft 323 kts 202°
2026-04-28 19:59 -31.23988 116.36362 12709 ft 321 kts 202°
2026-04-28 19:59 -31.26095 116.35532 12353 ft 319 kts 202°
2026-04-28 19:59 -31.28195 116.34704 11993 ft 317 kts 202°
2026-04-28 20:00 -31.30277 116.33883 11662 ft 315 kts 202°
2026-04-28 20:00 -31.32325 116.33076 11547 ft 305 kts 202°
2026-04-28 20:00 -31.34302 116.32297 11472 ft 294 kts 202°
2026-04-28 20:00 -31.36180 116.31556 11343 ft 287 kts 202°
2026-04-28 20:01 -31.38059 116.30813 11079 ft 284 kts 202°
2026-04-28 20:01 -31.39931 116.30073 10784 ft 284 kts 202°
2026-04-28 20:01 -31.41793 116.29321 10507 ft 282 kts 205°
2026-04-28 20:01 -31.43551 116.28343 10231 ft 279 kts 211°
2026-04-28 20:02 -31.45241 116.27248 9962 ft 277 kts 212°
2026-04-28 20:02 -31.46914 116.26137 9634 ft 276 kts 212°
2026-04-28 20:02 -31.48585 116.25033 9322 ft 275 kts 212°
2026-04-28 20:02 -31.50251 116.23941 9009 ft 274 kts 212°
2026-04-28 20:03 -31.51915 116.22859 8715 ft 273 kts 211°
2026-04-28 20:03 -31.53578 116.21783 8432 ft 272 kts 211°
2026-04-28 20:03 -31.55236 116.20715 8146 ft 271 kts 211°
2026-04-28 20:03 -31.56887 116.19653 7860 ft 271 kts 211°
2026-04-28 20:04 -31.58537 116.18593 7583 ft 270 kts 211°
2026-04-28 20:04 -31.60053 116.17620 7325 ft 269 kts 211°
2026-04-28 20:04 -31.61737 116.16539 7039 ft 268 kts 211°
2026-04-28 20:04 -31.62820 116.15843 6858 ft 268 kts 211°
2026-04-28 20:05 -31.63989 116.15093 6663 ft 267 kts 210°
2026-04-28 20:05 -31.65376 116.14202 6435 ft 266 kts 210°
2026-04-28 20:05 -31.66876 116.13239 6180 ft 265 kts 210°
2026-04-28 20:05 -31.68490 116.12202 5902 ft 264 kts 210°
2026-04-28 20:06 -31.69535 116.11531 5734 ft 263 kts 210°
2026-04-28 20:06 -31.71549 116.10237 5467 ft 252 kts 210°
2026-04-28 20:06 -31.73044 116.09277 5350 ft 238 kts 210°
2026-04-28 20:06 -31.74452 116.08373 5235 ft 225 kts 210°
2026-04-28 20:07 -31.75692 116.07311 4926 ft 220 kts 232°
2026-04-28 20:07 -31.76296 116.06361 4714 ft 218 kts 236°
2026-04-28 20:07 -31.77491 116.04473 4236 ft 218 kts 234°
2026-04-28 20:07 -31.78112 116.03509 4013 ft 217 kts 234°
2026-04-28 20:08 -31.78876 116.01998 3645 ft 215 kts 257°
2026-04-28 20:08 -31.78953 116.00831 3397 ft 213 kts 279°
2026-04-28 20:08 -31.78446 115.98603 3034 ft 210 kts 288°
2026-04-28 20:08 -31.77794 115.96439 2988 ft 214 kts 303°
2026-04-28 20:09 -31.76761 115.95329 3005 ft 207 kts 336°
2026-04-28 20:09 -31.75853 115.95078 2997 ft 200 kts
2026-04-28 20:09 -31.74591 115.95557 2975 ft 190 kts 39°
2026-04-28 20:09 -31.73897 115.96831 2991 ft 188 kts 77°
2026-04-28 20:10 -31.73960 115.98350 2841 ft 187 kts 101°
2026-04-28 20:10 -31.74250 115.99842 2560 ft 186 kts 102°
2026-04-28 20:10 -31.74545 116.01265 2489 ft 173 kts 104°
2026-04-28 20:10 -31.75189 116.02378 2481 ft 169 kts 153°
2026-04-28 20:11 -31.76382 116.02464 2502 ft 180 kts 205°
2026-04-28 20:11 -31.77433 116.01702 2499 ft 179 kts 207°
2026-04-28 20:11 -31.78485 116.01255 2505 ft 177 kts 200°
2026-04-28 20:11 -31.79645 116.00782 2495 ft 174 kts 198°
2026-04-28 20:12 -31.80800 116.00390 2415 ft 171 kts 195°
2026-04-28 20:12 -31.81777 116.00094 2264 ft 164 kts 195°
2026-04-28 20:12 -31.82879 115.99769 2057 ft 155 kts 194°
2026-04-28 20:12 -31.83907 115.99467 1840 ft 150 kts 194°
2026-04-28 20:13 -31.84925 115.99171 1640 ft 151 kts 194°
2026-04-28 20:13 -31.85941 115.98867 1432 ft 151 kts 193°
2026-04-28 20:13 -31.86961 115.98583 1197 ft 150 kts 192°
2026-04-28 20:13 -31.87967 115.98296 938 ft 147 kts 194°
2026-04-28 20:14 -31.88611 115.98096 818 ft 143 kts 193°
2026-04-28 20:15 -31.88614 115.98095 817 ft 143 kts 193°
2026-04-28 20:15 -31.89480 115.97833 690 ft 142 kts 193°
2026-04-28 20:15 -31.89845 115.97724 660 ft 144 kts 193°
2026-04-28 20:16 -31.90467 115.97551 577 ft 146 kts 192°
2026-04-28 20:16 -31.91476 115.97258 351 ft 146 kts 194°
2026-04-28 20:16 -31.92447 115.96971 147 ft 142 kts 194°
2026-04-28 20:16 -31.93363 115.96699 52 ft 133 kts 193°
2026-04-28 20:17 -31.94062 115.96496 57 ft 104 kts 194°
2026-04-28 20:17 -31.94614 115.96335 58 ft 60 kts 194°
2026-04-28 20:17 -31.94930 115.96243 60 ft 33 kts 195°
2026-04-28 20:17 -31.95096 115.96324 61 ft 28 kts 108°
2026-04-28 20:18 -31.95127 115.96489 60 ft 19 kts 94°
2026-04-28 20:18 -31.95067 115.96556 64 ft 19 kts 14°
2026-04-28 20:18 -31.94901 115.96604 60 ft 18 kts 14°
2026-04-28 20:18 -31.94779 115.96639 62 ft 18 kts 14°
2026-04-28 20:19 -31.94659 115.96676 63 ft 19 kts 15°
2026-04-28 20:19 -31.94527 115.96713 62 ft 21 kts 14°
2026-04-28 20:19 -31.94356 115.96763 60 ft 28 kts 14°
2026-04-28 20:19 -31.94205 115.96814 63 ft 20 kts 39°
2026-04-28 20:20 -31.94208 115.96944 62 ft 13 kts 103°
2026-04-28 20:20 -31.94243 115.96988 60 ft 5 kts 176°
2026-04-28 20:20 -31.94262 115.96982 60 ft 2 kts 193°
2026-04-28 20:20 -31.94279 115.96978 62 ft 1 kts 194°
2026-04-28 20:21 -31.94279 115.96977 62 ft 0 kts 194°